Jackpot

Texas Poker Multi Jackpot System

Kini Telah hadir Jackpot SUPER ROYAL FLUSH

Kini Telah hadir Jackpot 2000 (khusus table VIP keatas).

Ikutilah global jackpot yang tersedia di system kami, dengan system jackpot terbaru dan pertama di indonesia, anda dapat membeli jackpot dengan harga 100 rupiah saja dan menangkan hadiahnya hingga puluhan juta rupiah.

Jackpot bukanlah suatu keharusan untuk dibeli, namun kami memberikan suatu fitur tambahan untuk member tercinta dari www.iyapoker.com.

Terdapat tiga pilihan harga jackpot yang bisa anda beli yaitu :100,500,1000 dan 2000(khusus table VIP Keatas) rupiah.

Hadiah dari Multi jackpot system www.iyapoker.com

  1. full house x 10 harga jackpot yang anda beli.
      (contoh:anda membeli 1000 maka:1000 X10 = 10.000)
  2. four of kind x 250 harga jackpot yang anda beli
      (contoh:anda membeli 1000 maka:1000 X250 = 250.000)
  3. Straight flush x 1200
      (contoh:anda membeli 1000 maka:1000 X1200 = 1.200.000)
  4. Royal flush x 10000 harga jackpot yang anda beli
      (contoh:anda membeli 1000 maka:1000 X10000 = 10.000.000)
  5. SUPER ROYAL FLUSH x 30000 harga jackpot yang anda beli
      (contoh:anda membeli 1000 maka:1000 X30000 = 30.000.000)

Kondisi kartu

  1. full house adalah kondisi kartu dimana kartu anda dan kartu tengah dengan total 7 kartu bisa mendapatkan nilai 5 kartu dengan kombinasi 1 tris(three of kind) dan 1 pair, contoh 3 kartu 10 dan 2 kartu 5
  2. Four of kind adalah kondisi kartu dimana kartu anda dan kartu tengah dengan total 7 kartu bisa mendapatkan nilai 5 kartu dengan kombinasi 4 kartu yang sama jumlah dan 1 kartu apapun juga contoh anda mendapatkan 4 buah kartu angka 3 dan 1 kartu apapun.
  3. Staright flush adalah kondisi kartu dimana kartu anda dan kartu tengah dengan total 7 kartu bisa mendapatkan nilai 5 kartu dengan kombinasi seri / staright dengan kembang yang sama contoh : urutan kartu dari angka 5, 6, 7, 8 , 9 10 dengan kembang yg sama misalnya as hati
  4. Royal flush adalah kondisi kartu dimana kartu anda dan kartu tengah dengan total 7 kartu bisa mendapatkan nilai 5 kartu dengan kombinasi seri / staright dengan kembang yang sama tetapi kartu tersebut haruslah dimulai dari 10. contoh 10, Queen, Jack, King dan aces dengan kembang yang sama
  5. Super Royal flush adalah kondisi kartu dimana Kedua kartu anda digabung dengan 3 kartu pertama meja haruslah royal flush. contoh kartu anda 10,Queen kembang sama dan 3 kartu pertama meja adalah Jack, King dan aces dengan kembang yang sama

Demikian adalah penjelasan dari Multi Jackpot www.iyapoker.com terima kasih dan selamat bermain salam hoki dari kami

Texas Poker Jackpot Winner

TOP SUPER ROYAL FLUSH
No.TanggalNamaPriceWin
123/01 14:46PLERKINGSuper Royal flush30,000,000
223/01 13:14DIDU234Super Royal flush15,000,000
323/01 10:04H4S1LAASuper Royal flush15,000,000
423/01 06:41YASA9090Super Royal flush6,000,000
523/01 06:22D10EFC15Super Royal flush1,500,000
TOP ROYAL FLUSH
No.TanggalNamaPriceWin
123/01 16:39BURRUTRoyal flush5,000,000
223/01 16:36BNHKLH12Royal flush2,000,000
323/01 16:33MANDA509Royal flush5,000,000
423/01 16:33TOMBUS2Royal flush2,000,000
523/01 16:28KUTIK90Royal flush10,000,000
TOP STRAIGHT FLUSH
No.TanggalNamaPriceWin
123/01 16:38MALADEWAQQStraight Flush600,000
223/01 16:35GAPLE13Straight Flush600,000
323/01 16:33CL4RISY4Straight Flush600,000
423/01 16:33METRI433Straight Flush1,200,000
523/01 16:31JOMBI998Straight Flush1,200,000
LATEST JACKPOT
No.TanggalNamaPriceWin
123/01 16:40MUHYI234Four Of A Kind500,000
223/01 16:40TAMA76Full House5,000
323/01 16:40TRRRRSSSFull House10,000
423/01 16:40TEMPOER7Full House5,000
523/01 16:40PLERKINGFull House10,000
623/01 16:40KOPLOSSSSFull House2,000
723/01 16:40PELISFull House5,000
823/01 16:40STREESSSSSFull House2,000
923/01 16:40TOKETTTTTTFull House2,000
1023/01 16:40EDJPDOSCLHFull House10,000
1123/01 16:40TEDOT26Full House5,000
1223/01 16:40KIRIPIK3Full House2,000
1323/01 16:40F6E88CCFFull House5,000
1423/01 16:40WAK_TENFull House1,000
1523/01 16:40JAKONMABOKFull House2,000
1623/01 16:40ICIW_111Full House2,000
1723/01 16:40CINIKSZ78Full House5,000
1823/01 16:40QQINDRA29Full House5,000
1923/01 16:40NAGA13345Full House2,000
2023/01 16:40W2R2VWWJPEFull House2,000
2123/01 16:40BOYCIPFull House1,000
2223/01 16:40LOMA12Full House2,000
2323/01 16:40ITAARYANIFull House5,000
2423/01 16:40RY_EVAFull House2,000
2523/01 16:40MUHAR4Full House2,000
2623/01 16:40A3B8DC77Four Of A Kind50,000
2723/01 16:40CHUKI188Full House2,000
2823/01 16:40SINCHAN001Full House20,000
2923/01 16:40MANGGDULFull House5,000
3023/01 16:40WONG_DESO9Full House2,000
3123/01 16:40G0010Full House5,000
3223/01 16:40VINCENT282Full House2,000
3323/01 16:40MAUGUST33Full House5,000
3423/01 16:40B0US123Full House1,000
3523/01 16:40NOTRXFull House5,000
3623/01 16:40HOKIYABADIFull House1,000
3723/01 16:40BONBON4Full House10,000
3823/01 16:40YOGIKKKKKFull House2,000
3923/01 16:40T4DWANDENFull House2,000
4023/01 16:40ALTHAF02Full House2,000
4123/01 16:40SEKKEPCITYFull House2,000
4223/01 16:40KIDDOO21Full House2,000
4323/01 16:40RZX56O6CSEFull House10,000
4423/01 16:40SUATMAFull House10,000
4523/01 16:40DESTRONG99Four Of A Kind25,000
4623/01 16:39EDB3C61FFull House1,000
4723/01 16:39PUTRI_1_2Full House10,000
4823/01 16:39NLAFOUCCDOFull House2,000
4923/01 16:39DECU24Full House20,000
5023/01 16:39BGKABANFull House20,000

Domino Multi Jackpot System

Ikutilah global jackpot yang tersedia di system kami, dengan system jackpot terbaru dan pertama di indonesia, anda dapat membeli jackpot dengan harga 100 rupiah saja dan menangkan hadiahnya hingga puluhan juta rupiah.

Jackpot bukanlah suatu keharusan untuk dibeli, namun kami memberikan suatu fitur tambahan untuk member tercinta dari www.iyapoker.com.

Terdapat tiga pilihan harga jackpot yang bisa anda beli yaitu :100,500 dan 1000 rupiah.

Hadiah dari Multi jackpot system www.iyapoker.com

  1. Murni Kecil x 50 harga jackpot yang anda beli.
      (contoh:anda membeli 1000 maka:1000 X 50 = 50.000)
  2. Murni Besar x 50 harga jackpot yang anda beli
      (contoh:anda membeli 1000 maka:1000 X 50 = 50.000)
  3. BALAK x 100 harga jackpot yang anda beli
      (contoh:anda membeli 1000 maka:1000 X 100 = 100.000)
  4. ENAM DEWA x 6666 harga jackpot yang anda beli
      (contoh:anda membeli 1000 maka:1000 X 6666 = 6.666.000)

Demikian adalah penjelasan dari Multi Jackpot www.iyapoker.com terima kasih dan selamat bermain salam hoki dari kami

Domino Jackpot Winner

TOP ENAM DEWA
No.TanggalNamaPriceWin
123/01 16:07KELU88murni enam6,666,000
223/01 14:30OWBJYVFLOLmurni enam666,600
323/01 14:26DENAI88murni enam6,666,000
423/01 10:28ISALRUKITmurni enam3,333,000
523/01 09:49A98F8AFEmurni enam6,666,000
TOP BALAK
No.TanggalNamaPriceWin
123/01 16:38SELO21balak100,000
223/01 16:34ZIAD014balak100,000
323/01 16:32QS65FMICYRbalak10,000
423/01 16:26T0012021balak10,000
523/01 16:24BEYB3balak50,000
LATEST JACKPOT
No.TanggalNamaPriceWin
123/01 16:40TUYOOOK9murni besar25,000
223/01 16:39KABEL_20murni kecil25,000
323/01 16:38FRVmurni besar5,000
423/01 16:38ARYAHOKI99murni besar25,000
523/01 16:38SELO21balak100,000
623/01 16:37MNDAmurni kecil50,000
723/01 16:36TELER66murni kecil25,000
823/01 16:36IMA0910murni kecil50,000
923/01 16:36HORNETmurni besar25,000
1023/01 16:36MASHARJOmurni kecil25,000
1123/01 16:35RONZ1murni kecil5,000
1223/01 16:34MICAN15murni besar25,000
1323/01 16:34IGU15murni besar50,000
1423/01 16:34ZIAD014balak100,000
1523/01 16:33MICAN15murni besar25,000
1623/01 16:32XA44EL39Z2murni besar50,000
1723/01 16:32COOLC4Zmurni besar25,000
1823/01 16:32KHANIYYAmurni besar5,000
1923/01 16:32QS65FMICYRbalak10,000
2023/01 16:31Z4W1Rmurni kecil25,000
2123/01 16:30SDAWETTTmurni kecil50,000
2223/01 16:30B3AS8DFS6Elucky992,500
2323/01 16:30UEDANmurni besar25,000
2423/01 16:30RABIYAHmurni kecil5,000
2523/01 16:30SALEM121murni besar50,000
2623/01 16:29KIO1murni kecil5,000
2723/01 16:29T4D0014944murni besar5,000
2823/01 16:29OPOV555murni besar50,000
2923/01 16:27MASHARJOlucky9910,000
3023/01 16:26T0012021balak10,000
3123/01 16:26VHY86murni besar50,000
3223/01 16:26BUAYA6X4murni kecil50,000
3323/01 16:26ABICOLImurni besar50,000
3423/01 16:26SURYADHARMmurni kecil5,000
3523/01 16:26AIRTIRI88murni besar50,000
3623/01 16:25MONROEZOELmurni kecil50,000
3723/01 16:25CABOK17murni besar25,000
3823/01 16:24BEYB3balak50,000
3923/01 16:24BEBEC98murni kecil50,000
4023/01 16:23T4D0014944murni besar5,000
4123/01 16:22WIJAY111murni kecil50,000
4223/01 16:21UDAANG9balak100,000
4323/01 16:21HOKIB3T123murni kecil50,000
4423/01 16:20RAMSESS20murni besar50,000
4523/01 16:19T3MB0S_JTmurni besar5,000
4623/01 16:19DARUN11murni kecil25,000
4723/01 16:18MASHARJOmurni besar25,000
4823/01 16:18V6RJ0O1EU6murni besar5,000
4923/01 16:18C7DB8049murni besar25,000
5023/01 16:18INDOWINERSmurni kecil5,000

Ceme Multi Jackpot System

Jackpot dilihat dari gabungan kartu pemain dengan kartu bandar. Bandar harus membeli jackpot sebanyak jumlah player yang sedang duduk. Sebagai contoh bila terdapat 3 pemain duduk bermain, dan bandar memutuskan untuk membeli jackpot Rp 1.000, maka pada periode tersebut bandar akan membeli jackpot sebanyak 3xRp1.000 = Rp3.000.

Jackpot bukanlah suatu keharusan untuk dibeli, namun kami memberikan suatu fitur tambahan untuk member tercinta dari www.iyapoker.com.

Terdapat tiga pilihan harga jackpot yang bisa anda beli yaitu :100,500 dan 1000 rupiah.

Hadiah dari Multi jackpot system www.iyapoker.com

  1. Murni Kecil x 50 harga jackpot yang anda beli.
      (contoh:anda membeli 1000 maka:1000 X 50 = 50.000)
  2. Murni Besar x 50 harga jackpot yang anda beli
      (contoh:anda membeli 1000 maka:1000 X 50 = 50.000)
  3. BALAK x 200 harga jackpot yang anda beli
      (contoh:anda membeli 1000 maka:1000 X 200 = 200.000)
  4. ENAM DEWA x 6666 harga jackpot yang anda beli
      (contoh:anda membeli 1000 maka:1000 X 6666 = 6.666.000)

Demikian adalah penjelasan dari Multi Jackpot www.iyapoker.com terima kasih dan selamat bermain salam hoki dari kami

Ceme Jackpot Winner

TOP ENAM DEWA
No.TanggalNamaPriceWin
123/01 16:38NOTKKmurni enam666,600
223/01 16:25D1867murni enam6,666,000
323/01 16:25F1TRA1111murni enam6,666,000
423/01 16:24HETTYPEREZmurni enam666,600
523/01 16:18CIT4NNNmurni enam6,666,000
TOP BALAK
No.TanggalNamaPriceWin
123/01 16:39DR4CULL4balak200,000
223/01 16:39NJES21balak200,000
323/01 16:39RY4N007balak200,000
423/01 16:39RAJEMUDEbalak200,000
523/01 16:38NAYA555balak200,000
LATEST JACKPOT
No.TanggalNamaPriceWin
123/01 16:40PRADHIPTAmurni kecil50,000
223/01 16:40GEORG99murni kecil50,000
323/01 16:40GEORG99murni kecil50,000
423/01 16:40A6A6A6A6murni kecil25,000
523/01 16:40ZAUHARANTmurni besar25,000
623/01 16:40RVAY2417murni besar5,000
723/01 16:40AF2I7murni kecil5,000
823/01 16:40ADMRTH7BDHmurni kecil5,000
923/01 16:40JIBRUTLOmurni kecil50,000
1023/01 16:40BACOOL23murni kecil5,000
1123/01 16:40HK_5888murni kecil50,000
1223/01 16:40ERWINAYCANmurni kecil25,000
1323/01 16:40AMELIASISmurni besar50,000
1423/01 16:39DR4CULL4balak200,000
1523/01 16:39NJES21balak200,000
1623/01 16:39DR4CULL4murni kecil50,000
1723/01 16:39ADHY1979murni kecil25,000
1823/01 16:39K4NGG0RIK0murni besar25,000
1923/01 16:39VD167murni kecil50,000
2023/01 16:39RY4N007balak200,000
2123/01 16:39RAJEMUDEbalak200,000
2223/01 16:39GTU451murni kecil5,000
2323/01 16:39TEBBE10murni kecil5,000
2423/01 16:39H0L0N6789murni kecil25,000
2523/01 16:38JUPRIBOBmurni besar50,000
2623/01 16:38NAYA555balak200,000
2723/01 16:38IPUNK193murni besar5,000
2823/01 16:38LLDR3balak200,000
2923/01 16:38NK7FG6YMW3balak100,000
3023/01 16:38WALLATmurni besar50,000
3123/01 16:38S4J1KONGmurni besar5,000
3223/01 16:38HK_5888murni kecil50,000
3323/01 16:38URFI88murni kecil25,000
3423/01 16:38OBETT13balak200,000
3523/01 16:38SENA2003balak200,000
3623/01 16:38SUALLOWbalak200,000
3723/01 16:38NOTKKmurni enam666,600
3823/01 16:38CUNSTHEAbalak200,000
3923/01 16:38MAZIN0099murni besar50,000
4023/01 16:37ZIVIO123balak20,000
4123/01 16:37AD0F1538murni besar50,000
4223/01 16:37REY172murni kecil5,000
4323/01 16:37DJMAN21balak200,000
4423/01 16:37KOCLAK85balak20,000
4523/01 16:37PRADHIPTAmurni besar50,000
4623/01 16:37PRADHIPTAmurni besar50,000
4723/01 16:37KAPALANmurni kecil50,000
4823/01 16:37J0K3XWTZNYmurni kecil50,000
4923/01 16:37BENGZ285murni besar50,000
5023/01 16:37CHUINXZmurni besar50,000